Location: Carite
(10.3909°N, 67.0102°W)
Time: 01:37:47
(UTC+00:00)

Landsat 7 - Pass Details

Date: 08 September 2024
Orbit: 689 x 691 km, 97.9° (Epoch: 06 October)

Event Time Altitude Azimuth Distance (km) Brightness Sun altitude
Rises 23:28:03 0° 170° (S) 3,055 6.9 -14.4°
Reaches altitude 10° 23:30:17 10° 171° (S) 2,139 6.1 -14.9°
Maximum altitude 23:34:58 81° 257° (WSW) 701 3.8 -16.0°
Drops below altitude 10° 23:39:40 10° 346° (NNW) 2,137 6.6 -17.2°
Sets 23:41:54 0° 347° (NNW) 3,052 7.4 -17.7°
